MILESOVKA Weather Reports


Display with metric or nautical units.
time (UTC)temp
F
wind
direction
speed
MPH
gust
MPH
rain 1hr
in
rain 24hr
in
rain mn
in
humidity
%
barometer
mb
20260508011844 39 360 12.0 0.0 0.00 0.00 0.00 99
20260508001744 41 360 16.0 0.0 0.00 0.00 0.00 99
20260507231744 41 360 12.0 0.0 0.00 0.00 0.00 99
20260507222046 41 10 14.0 0.0 0.00 0.00 0.00 99
20260507211746 41 10 12.0 0.0 0.00 0.00 0.00 99
20260507201746 41 10 16.0 0.0 0.00 0.00 0.00 99
20260507191846 43 10 12.0 0.0 0.00 0.00 0.00 99
20260507181745 43 360 20.0 0.0 0.00 0.00 0.00 99
20260507171745 43 10 24.0 0.0 0.00 0.00 0.00 99
20260507162046 45 10 14.0 0.0 0.00 0.00 0.00 99
20260507151745 46 360 16.0 0.0 0.00 0.00 0.00 99
20260507141745 46 310 14.0 0.0 0.00 0.00 0.00 99
20260507131846 48 340 12.0 0.0 0.00 0.00 0.00 99
20260507121745 54 250 14.0 24.0 0.00 0.00 0.00 87
20260507111745 52 230 18.0 0.0 0.00 0.00 0.00 93
20260507101945 52 230 18.0 0.0 0.00 0.00 0.00 99
20260507091745 50 230 12.0 0.0 0.00 0.00 0.00 99
20260507081745 48 270 9.0 0.0 0.00 0.00 0.00 99
20260507071745 48 270 7.0 0.0 0.00 0.00 0.00 99
20260507061745 48 310 5.0 0.0 0.00 0.00 0.00 99
20260507051744 48 240 12.0 0.0 0.00 0.00 0.00 99
20260507041947 48 0 0.0 0.0 0.00 0.00 0.00 99
20260507031744 48 250 5.0 0.0 0.00 0.00 0.00 99
20260507021743 48 230 7.0 0.0 0.00 0.00 0.00 99